| time (UTC) | temp F | wind direction | speed MPH | gust MPH | rain 1hr in | rain 24hr in | rain mn in | humidity % | barometer mb |
| 20260504110518 | 44 | 257 | 0.0 | 4.0 | 0.00 | 0.00 | 0.00 | 67 | 1011.2 |
| 20260504100517 | 44 | 217 | 0.0 | 3.0 | 0.00 | 0.00 | 0.00 | 66 | 1011.0 |
| 20260504081538 | 43 | 198 | 0.0 | 0.0 | 0.00 | 0.00 | 0.00 | 66 | 1010.7 |
| 20260504081020 | 43 | 0 | 0.0 | 1.0 | 0.00 | 0.00 | 0.00 | 67 | 1010.7 |
| 20260504080517 | 43 | 198 | 0.0 | 1.0 | 0.00 | 0.00 | 0.00 | 67 | 1010.7 |
| 20260504050518 | 38 | 0 | 0.0 | 0.0 | 0.00 | 0.00 | 0.00 | 70 | 1010.6 |
| 20260504045517 | 39 | 0 | 0.0 | 1.0 | 0.00 | 0.00 | 0.00 | 70 | 1010.5 |
| 20260504045021 | 39 | 0 | 0.0 | 1.0 | 0.00 | 0.00 | 0.00 | 69 | 1010.6 |
| 20260504044538 | 39 | 0 | 0.0 | 1.0 | 0.00 | 0.00 | 0.00 | 69 | 1010.6 |
| 20260504044018 | 39 | 0 | 0.0 | 1.0 | 0.00 | 0.00 | 0.00 | 69 | 1010.5 |
| 20260504043517 | 39 | 217 | 0.0 | 1.0 | 0.00 | 0.00 | 0.00 | 68 | 1010.7 |
| 20260504043043 | 39 | 216 | 0.0 | 1.0 | 0.00 | 0.00 | 0.00 | 68 | 1010.5 |
| 20260504042518 | 40 | 265 | 0.0 | 3.0 | 0.00 | 0.00 | 0.00 | 68 | 1010.6 |
| 20260504042021 | 40 | 214 | 0.0 | 3.0 | 0.00 | 0.00 | 0.00 | 68 | 1010.6 |
| 20260504041534 | 39 | 300 | 0.0 | 1.0 | 0.00 | 0.00 | 0.00 | 68 | 1010.6 |
| 20260504041017 | 39 | 213 | 0.0 | 2.0 | 0.00 | 0.00 | 0.00 | 69 | 1010.5 |
| 20260504040518 | 39 | 0 | 0.0 | 3.0 | 0.00 | 0.00 | 0.00 | 70 | 1010.3 |
| 20260504040039 | 39 | 0 | 0.0 | 3.0 | 0.00 | 0.00 | 0.00 | 70 | 1010.4 |
| 20260504035518 | 39 | 218 | 0.0 | 2.0 | 0.00 | 0.00 | 0.00 | 71 | 1010.2 |
| 20260504035023 | 39 | 217 | 0.0 | 2.0 | 0.00 | 0.00 | 0.00 | 70 | 1010.1 |
| 20260504034544 | 39 | 0 | 0.0 | 2.0 | 0.00 | 0.00 | 0.00 | 70 | 1010.0 |
| 20260504034017 | 38 | 205 | 0.0 | 1.0 | 0.00 | 0.00 | 0.00 | 71 | 1010.0 |
| 20260504033521 | 38 | 209 | 0.0 | 1.0 | 0.00 | 0.00 | 0.00 | 72 | 1010.0 |
| 20260504033041 | 38 | 248 | 0.0 | 3.0 | 0.00 | 0.00 | 0.00 | 73 | 1010.0 |
| 20260504032517 | 38 | 248 | 0.0 | 3.0 | 0.00 | 0.00 | 0.00 | 73 | 1010.1 |
| 20260504032017 | 38 | 0 | 0.0 | 1.0 | 0.00 | 0.00 | 0.00 | 72 | 1010.1 |
| 20260504031538 | 38 | 0 | 0.0 | 1.0 | 0.00 | 0.00 | 0.00 | 72 | 1010.0 |
| 20260504031023 | 38 | 0 | 0.0 | 1.0 | 0.00 | 0.00 | 0.00 | 72 | 1010.0 |
| 20260504030521 | 39 | 0 | 0.0 | 1.0 | 0.00 | 0.00 | 0.00 | 71 | 1010.2 |
| 20260504030042 | 39 | 0 | 0.0 | 1.0 | 0.00 | 0.00 | 0.00 | 70 | 1010.0 |
| 20260504025523 | 39 | 217 | 0.0 | 1.0 | 0.00 | 0.00 | 0.00 | 70 | 1010.1 |
| 20260504025018 | 39 | 0 | 0.0 | 0.0 | 0.00 | 0.00 | 0.00 | 70 | 1010.1 |
| 20260504024532 | 39 | 0 | 0.0 | 1.0 | 0.00 | 0.00 | 0.00 | 71 | 1010.1 |
| 20260504024021 | 39 | 0 | 0.0 | 1.0 | 0.00 | 0.00 | 0.00 | 69 | 1010.0 |
| 20260504023518 | 39 | 0 | 0.0 | 1.0 | 0.00 | 0.00 | 0.00 | 69 | 1010.1 |
| 20260504023040 | 39 | 0 | 0.0 | 1.0 | 0.00 | 0.00 | 0.00 | 69 | 1010.1 |
| 20260504022518 | 40 | 0 | 0.0 | 1.0 | 0.00 | 0.00 | 0.00 | 68 | 1010.0 |
| 20260504022020 | 40 | 219 | 0.0 | 1.0 | 0.00 | 0.00 | 0.00 | 67 | 1010.0 |
| 20260504021537 | 40 | 0 | 0.0 | 0.0 | 0.00 | 0.00 | 0.00 | 67 | 1009.9 |
| 20260504021021 | 40 | 322 | 0.0 | 1.0 | 0.00 | 0.00 | 0.00 | 66 | 1010.0 |
| 20260504020518 | 40 | 10 | 0.0 | 1.0 | 0.00 | 0.00 | 0.00 | 67 | 1009.9 |
| 20260504020046 | 40 | 0 | 0.0 | 1.0 | 0.00 | 0.00 | 0.00 | 65 | 1010.0 |
| 20260504015520 | 40 | 0 | 0.0 | 1.0 | 0.00 | 0.00 | 0.00 | 67 | 1009.9 |
| 20260504015017 | 40 | 0 | 0.0 | 1.0 | 0.00 | 0.00 | 0.00 | 66 | 1009.9 |
| 20260504014539 | 41 | 0 | 0.0 | 1.0 | 0.00 | 0.00 | 0.00 | 65 | 1009.8 |
| 20260504014020 | 41 | 0 | 0.0 | 0.0 | 0.00 | 0.00 | 0.00 | 62 | 1009.9 |
| 20260504013523 | 41 | 0 | 0.0 | 0.0 | 0.00 | 0.00 | 0.00 | 62 | 1009.8 |
| 20260504013036 | 41 | 0 | 0.0 | 0.0 | 0.00 | 0.00 | 0.00 | 62 | 1009.8 |
| 20260504012521 | 42 | 0 | 0.0 | 0.0 | 0.00 | 0.00 | 0.00 | 63 | 1009.6 |
| 20260504012019 | 42 | 0 | 0.0 | 1.0 | 0.00 | 0.00 | 0.00 | 62 | 1009.7 |
| 20260504011542 | 42 | 0 | 0.0 | 1.0 | 0.00 | 0.00 | 0.00 | 61 | 1009.6 |
| 20260504011017 | 43 | 0 | 0.0 | 0.0 | 0.00 | 0.00 | 0.00 | 59 | 1009.6 |
| 20260504010517 | 43 | 0 | 0.0 | 0.0 | 0.00 | 0.00 | 0.00 | 58 | 1009.5 |
| 20260504010038 | 44 | 0 | 0.0 | 0.0 | 0.00 | 0.00 | 0.00 | 56 | 1009.5 |
| 20260504005518 | 44 | 0 | 0.0 | 0.0 | 0.00 | 0.00 | 0.00 | 55 | 1009.4 |
| 20260504005018 | 45 | 0 | 0.0 | 0.0 | 0.00 | 0.00 | 0.00 | 54 | 1009.3 |
| 20260504004537 | 45 | 0 | 0.0 | 0.0 | 0.00 | 0.00 | 0.00 | 52 | 1009.1 |
| 20260504004018 | 46 | 0 | 0.0 | 0.0 | 0.00 | 0.00 | 0.00 | 51 | 1009.2 |
| 20260504003517 | 47 | 0 | 0.0 | 0.0 | 0.00 | 0.00 | 0.00 | 49 | 1009.1 |
| 20260504003037 | 47 | 0 | 0.0 | 0.0 | 0.00 | 0.00 | 0.00 | 48 | 1008.9 |
| 20260504002517 | 48 | 0 | 0.0 | 0.0 | 0.00 | 0.00 | 0.00 | 48 | 1008.9 |
| 20260504002017 | 48 | 0 | 0.0 | 1.0 | 0.00 | 0.00 | 0.00 | 48 | 1008.8 |
| 20260504001535 | 49 | 0 | 0.0 | 1.0 | 0.00 | 0.00 | 0.00 | 47 | 1008.7 |
| 20260504001018 | 49 | 0 | 0.0 | 2.0 | 0.00 | 0.00 | 0.00 | 46 | 1008.7 |
| 20260504000520 | 49 | 0 | 0.0 | 2.0 | 0.00 | 0.00 | 0.00 | 46 | 1008.7 |
| 20260504000038 | 50 | 0 | 0.0 | 3.0 | 0.00 | 0.00 | 0.00 | 45 | 1008.6 |
| 20260503235521 | 50 | 0 | 0.0 | 4.0 | 0.00 | 0.00 | 0.00 | 45 | 1008.6 |
| 20260503235019 | 50 | 303 | 1.0 | 4.0 | 0.00 | 0.00 | 0.00 | 45 | 1008.5 |
| 20260503234540 | 50 | 316 | 0.0 | 2.0 | 0.00 | 0.00 | 0.00 | 45 | 1008.5 |
| 20260503234018 | 50 | 321 | 0.0 | 3.0 | 0.00 | 0.00 | 0.00 | 45 | 1008.5 |
| 20260503233523 | 51 | 250 | 0.0 | 3.0 | 0.00 | 0.00 | 0.00 | 44 | 1008.3 |
| 20260503233037 | 51 | 260 | 0.0 | 3.0 | 0.00 | 0.00 | 0.00 | 45 | 1008.2 |
| 20260503232521 | 51 | 245 | 1.0 | 4.0 | 0.00 | 0.00 | 0.00 | 44 | 1008.1 |
| 20260503232017 | 51 | 272 | 1.0 | 4.0 | 0.00 | 0.00 | 0.00 | 43 | 1008.0 |
| 20260503231537 | 51 | 179 | 1.0 | 10.0 | 0.00 | 0.00 | 0.00 | 42 | 1008.0 |
| 20260503231017 | 51 | 0 | 2.0 | 10.0 | 0.00 | 0.00 | 0.00 | 43 | 1007.9 |
| 20260503230521 | 51 | 346 | 1.0 | 5.0 | 0.00 | 0.00 | 0.00 | 43 | 1007.8 |
| 20260503230037 | 51 | 302 | 2.0 | 5.0 | 0.00 | 0.00 | 0.00 | 43 | 1007.8 |
| 20260503225517 | 52 | 318 | 1.0 | 7.0 | 0.00 | 0.00 | 0.00 | 43 | 1007.7 |
| 20260503225025 | 52 | 336 | 3.0 | 7.0 | 0.00 | 0.00 | 0.00 | 41 | 1007.6 |
| 20260503224535 | 52 | 314 | 1.0 | 6.0 | 0.00 | 0.00 | 0.00 | 43 | 1007.6 |
| 20260503224018 | 52 | 332 | 2.0 | 6.0 | 0.00 | 0.00 | 0.00 | 42 | 1007.5 |
| 20260503223520 | 52 | 333 | 2.0 | 8.0 | 0.00 | 0.00 | 0.00 | 42 | 1007.4 |
| 20260503223036 | 52 | 349 | 2.0 | 8.0 | 0.00 | 0.00 | 0.00 | 42 | 1007.4 |
| 20260503222517 | 52 | 46 | 2.0 | 9.0 | 0.00 | 0.00 | 0.00 | 42 | 1007.3 |
| 20260503222021 | 52 | 319 | 3.0 | 9.0 | 0.00 | 0.00 | 0.00 | 42 | 1007.1 |
| 20260503221539 | 52 | 35 | 1.0 | 7.0 | 0.00 | 0.00 | 0.00 | 44 | 1007.1 |
| 20260503221018 | 52 | 322 | 2.0 | 5.0 | 0.00 | 0.00 | 0.00 | 43 | 1007.0 |
| 20260503220520 | 52 | 14 | 1.0 | 5.0 | 0.00 | 0.00 | 0.00 | 44 | 1006.9 |
| 20260503220040 | 52 | 354 | 2.0 | 8.0 | 0.00 | 0.00 | 0.00 | 42 | 1006.7 |
| 20260503215520 | 52 | 27 | 2.0 | 8.0 | 0.00 | 0.00 | 0.00 | 42 | 1006.7 |
| 20260503215019 | 53 | 339 | 2.0 | 8.0 | 0.00 | 0.00 | 0.00 | 42 | 1006.5 |
| 20260503214542 | 53 | 302 | 4.0 | 8.0 | 0.00 | 0.00 | 0.00 | 41 | 1006.4 |
| 20260503214019 | 53 | 98 | 3.0 | 12.0 | 0.00 | 0.00 | 0.00 | 41 | 1006.4 |
| 20260503213519 | 53 | 249 | 2.0 | 12.0 | 0.00 | 0.00 | 0.00 | 43 | 1006.2 |
| 20260503213038 | 53 | 221 | 3.0 | 9.0 | 0.00 | 0.00 | 0.00 | 41 | 1006.1 |
| 20260503212522 | 53 | 321 | 3.0 | 9.0 | 0.00 | 0.00 | 0.00 | 40 | 1006.1 |
| 20260503212019 | 54 | 358 | 2.0 | 9.0 | 0.00 | 0.00 | 0.00 | 41 | 1006.1 |
| 20260503211543 | 54 | 26 | 4.0 | 8.0 | 0.00 | 0.00 | 0.00 | 41 | 1006.0 |
| 20260503211020 | 54 | 55 | 2.0 | 4.0 | 0.00 | 0.00 | 0.00 | 43 | 1005.9 |
| 20260503210519 | 54 | 330 | 1.0 | 9.0 | 0.00 | 0.00 | 0.00 | 43 | 1005.8 |
| 20260503210035 | 54 | 311 | 3.0 | 9.0 | 0.00 | 0.00 | 0.00 | 43 | 1005.7 |
| 20260503205519 | 54 | 280 | 3.0 | 7.0 | 0.00 | 0.00 | 0.00 | 43 | 1005.8 |
| 20260503205020 | 54 | 292 | 2.0 | 7.0 | 0.00 | 0.00 | 0.00 | 45 | 1005.6 |
| 20260503204537 | 53 | 63 | 3.0 | 8.0 | 0.00 | 0.00 | 0.00 | 44 | 1005.5 |
| 20260503204022 | 53 | 276 | 4.0 | 8.0 | 0.00 | 0.00 | 0.00 | 45 | 1005.8 |
| 20260503203521 | 54 | 50 | 3.0 | 6.0 | 0.00 | 0.00 | 0.00 | 45 | 1005.5 |
| 20260503203045 | 54 | 336 | 3.0 | 6.0 | 0.00 | 0.00 | 0.00 | 43 | 1005.5 |
| 20260503202520 | 54 | 43 | 1.0 | 7.0 | 0.00 | 0.00 | 0.00 | 45 | 1005.6 |
| 20260503202020 | 53 | 5 | 2.0 | 8.0 | 0.00 | 0.00 | 0.00 | 45 | 1005.6 |
| 20260503201539 | 53 | 306 | 3.0 | 8.0 | 0.00 | 0.00 | 0.00 | 44 | 1005.4 |
| 20260503201023 | 53 | 285 | 2.0 | 8.0 | 0.00 | 0.00 | 0.00 | 46 | 1005.6 |
| 20260503200521 | 53 | 297 | 3.0 | 8.0 | 0.00 | 0.00 | 0.00 | 46 | 1005.5 |
| 20260503200052 | 53 | 18 | 2.0 | 6.0 | 0.00 | 0.00 | 0.00 | 47 | 1005.3 |
| 20260503195519 | 53 | 309 | 2.0 | 6.0 | 0.00 | 0.00 | 0.00 | 48 | 1005.4 |
| 20260503195020 | 53 | 260 | 2.0 | 5.0 | 0.00 | 0.00 | 0.00 | 48 | 1005.4 |
| 20260503194537 | 53 | 257 | 2.0 | 5.0 | 0.00 | 0.00 | 0.00 | 49 | 1005.4 |
| 20260503194019 | 53 | 320 | 2.0 | 6.0 | 0.00 | 0.00 | 0.00 | 49 | 1005.4 |
| 20260503193519 | 52 | 283 | 3.0 | 8.0 | 0.00 | 0.00 | 0.00 | 50 | 1005.5 |
| 20260503193040 | 52 | 36 | 3.0 | 8.0 | 0.00 | 0.00 | 0.00 | 50 | 1005.4 |
| 20260503192520 | 52 | 315 | 2.0 | 5.0 | 0.00 | 0.00 | 0.00 | 51 | 1005.5 |
| 20260503192019 | 52 | 46 | 2.0 | 9.0 | 0.00 | 0.00 | 0.00 | 50 | 1005.5 |
| 20260503191543 | 52 | 281 | 3.0 | 9.0 | 0.00 | 0.00 | 0.00 | 50 | 1005.6 |
| 20260503191019 | 53 | 300 | 2.0 | 12.0 | 0.00 | 0.00 | 0.00 | 50 | 1005.7 |
| 20260503190519 | 53 | 300 | 2.0 | 12.0 | 0.00 | 0.00 | 0.00 | 49 | 1005.5 |
| 20260503190041 | 53 | 34 | 2.0 | 9.0 | 0.00 | 0.00 | 0.00 | 50 | 1005.6 |
| 20260503185519 | 52 | 58 | 3.0 | 6.0 | 0.00 | 0.00 | 0.00 | 50 | 1005.6 |
| 20260503185024 | 52 | 44 | 1.0 | 6.0 | 0.00 | 0.00 | 0.00 | 52 | 1005.6 |
| 20260503184549 | 52 | 258 | 2.0 | 5.0 | 0.00 | 0.00 | 0.00 | 54 | 1005.6 |
| 20260503184020 | 51 | 291 | 2.0 | 6.0 | 0.00 | 0.00 | 0.00 | 53 | 1005.6 |
| 20260503183519 | 51 | 360 | 3.0 | 6.0 | 0.00 | 0.00 | 0.00 | 52 | 1005.7 |
| 20260503183042 | 51 | 304 | 1.0 | 7.0 | 0.00 | 0.00 | 0.00 | 53 | 1005.7 |
| 20260503182523 | 51 | 292 | 1.0 | 7.0 | 0.00 | 0.00 | 0.00 | 53 | 1005.7 |
| 20260503182023 | 51 | 312 | 3.0 | 7.0 | 0.00 | 0.00 | 0.00 | 52 | 1005.6 |
| 20260503181545 | 52 | 356 | 3.0 | 7.0 | 0.00 | 0.00 | 0.00 | 52 | 1005.5 |
| 20260503181019 | 52 | 265 | 2.0 | 8.0 | 0.00 | 0.00 | 0.00 | 52 | 1005.4 |
| 20260503180521 | 53 | 359 | 3.0 | 8.0 | 0.00 | 0.00 | 0.00 | 51 | 1005.5 |
| 20260503180048 | 53 | 323 | 3.0 | 10.0 | 0.00 | 0.00 | 0.00 | 52 | 1005.5 |
| 20260503175518 | 52 | 307 | 3.0 | 10.0 | 0.00 | 0.00 | 0.00 | 53 | 1005.4 |
| 20260503175018 | 52 | 29 | 3.0 | 9.0 | 0.00 | 0.00 | 0.00 | 53 | 1005.6 |
| 20260503174546 | 51 | 306 | 2.0 | 9.0 | 0.00 | 0.00 | 0.00 | 57 | 1005.5 |
| 20260503174020 | 51 | 349 | 3.0 | 9.0 | 0.00 | 0.00 | 0.00 | 57 | 1005.5 |
| 20260503173519 | 50 | 14 | 0.0 | 7.0 | 0.00 | 0.00 | 0.00 | 60 | 1005.6 |
| 20260503173052 | 50 | 344 | 3.0 | 7.0 | 0.00 | 0.00 | 0.00 | 59 | 1005.5 |
| 20260503172519 | 50 | 351 | 2.0 | 9.0 | 0.00 | 0.00 | 0.00 | 60 | 1005.6 |
| 20260503172022 | 49 | 8 | 3.0 | 9.0 | 0.00 | 0.00 | 0.00 | 61 | 1005.6 |
| 20260503171535 | 49 | 286 | 2.0 | 7.0 | 0.00 | 0.00 | 0.00 | 61 | 1005.6 |
| 20260503171019 | 49 | 290 | 2.0 | 8.0 | 0.00 | 0.00 | 0.00 | 61 | 1005.6 |
| 20260503170521 | 49 | 1 | 3.0 | 9.0 | 0.00 | 0.00 | 0.00 | 62 | 1005.7 |
| 20260503150521 | 46 | 313 | 2.0 | 6.0 | 0.00 | 0.00 | 0.00 | 75 | 1005.5 |
| 20260503131018 | 46 | 293 | 4.0 | 8.0 | 0.00 | 0.00 | 0.00 | 74 | 1005.4 |
| 20260503130520 | 47 | 352 | 2.0 | 6.0 | 0.00 | 0.00 | 0.00 | 74 | 1005.3 |